Terminal Aerodrome Forecast
Issued by NWS

Home | Current Version | Previous Version | Graphics & Text | Print | Product List | Glossary On
Versions: 1 2 3 4 5 6 7 8 9 10 11 12 13 14 15 16 17 18 19 20 21 22 23
000
FTUS43 KABR 301400 AAA
TAFATY
TAF AMD
KATY 301418Z 3014/3112 33009KT P6SM OVC008
     FM301600 04005KT P6SM BKN012
     FM302100 14009KT P6SM SKC
     FM310400 17015KT P6SM SCT100=

USA.gov is the U.S. government's official web portal to all federal, state and local government web resources and services.